User: anonymous   Login
Location: Elstree
(51.6403°N, 0.2969°W)
Time: 05:35:12
(UTC+00:00)
Language:

SJ 16-02 - Orbit

View from above orbital plane
View from above orbital plane
View from above satellite
View from above satellite

Ground track
Ground track

The orbit data is extracted from the following two-line orbital elements,

1 41634U 16043A   21208.77646649  .00000171  00000-0  22823-4 0  9994
2 41634  75.0036  34.7860 0006898  39.5639 320.6043 14.85824854275433
Epoch (UTC): 27 July 2021 18:38:06
Eccentricity: 0.0006898
inclination: 75.0036°
perigee height: 606 km
apogee height: 616 km
right ascension of ascending node: 34.7860°
argument of perigee: 39.5639°
revolutions per day: 14.85824854
mean anomaly at epoch: 320.6043°
orbit number at epoch: 27543

The dashed part of the orbit path shows where the satellite is in the earth's shadow,  

DLR